{"data":{"norad_id":67176,"epoch":"2026-09-20T19:03:44.620416Z","epoch_age_seconds":52792,"freshness":"FRESH","line1":"1 67176U 25303P   26263.79426644  .00014216  00000+0  52488-3 0  9994","line2":"2 67176  43.0034 288.8897 0001295 279.9328  80.1377 15.27595367 42574","mean_motion":15.27595367,"eccentricity":0.0001295,"inclination_deg":43.0034,"raan_deg":288.8897,"arg_perigee_deg":279.9328,"mean_anomaly_deg":80.1377,"bstar":0.00052488,"rev_number":4257,"period_min":94.265800427765,"perigee_km":482.11456445851,"apogee_km":483.89159973977,"semimajor_km":6861.1400820991,"source":"CELESTRAK","updated_at":"2026-09-21T09:00:36.112812Z"}}